DW1086 Weather Reports


Display with metric or nautical units.
time (UTC)temp
F
wind
direction
speed
MPH
gust
MPH
rain 1hr
in
rain 24hr
in
rain mn
in
humidity
%
barometer
mb
20260905193603 81 342 2.0 5.0 0.00 0.00 0.00 59 1008.6
20260905193104 81 344 2.0 7.0 0.00 0.00 0.00 58 1008.7
20260905192604 81 245 2.0 5.0 0.00 0.00 0.00 57 1008.8
20260905191603 80 318 2.0 5.0 0.00 0.00 0.00 60 1009.1
20260905191103 80 27 3.0 6.0 0.00 0.00 0.00 60 1009.1
20260905190604 80 282 2.0 8.0 0.00 0.00 0.00 57 1009.1
20260905190103 80 317 1.0 6.0 0.00 0.00 0.00 60 1009.1
20260905185603 80 253 2.0 6.0 0.00 0.00 0.00 56 1009.1
20260905185103 81 288 2.0 5.0 0.00 0.00 0.00 61 1009.1
20260905184603 80 303 3.0 7.0 0.00 0.00 0.00 58 1009.0
20260905184104 80 302 3.0 6.0 0.00 0.00 0.00 56 1009.2
20260905183604 80 26 1.0 8.0 0.00 0.00 0.00 58 1009.2
20260905183103 80 300 1.0 8.0 0.00 0.00 0.00 64 1009.3
20260905182604 79 29 1.0 5.0 0.00 0.00 0.00 61 1009.3
20260905181603 78 359 1.0 3.0 0.00 0.00 0.00 62 1009.6
20260905181103 78 321 3.0 7.0 0.00 0.00 0.00 58 1009.6
20260905180604 79 357 2.0 5.0 0.00 0.00 0.00 60 1009.6
20260905180103 80 297 3.0 7.0 0.00 0.00 0.00 63 1009.6
20260905175603 80 309 3.0 6.0 0.00 0.00 0.00 60 1009.6
20260905174603 79 334 3.0 6.0 0.00 0.00 0.00 61 1009.6
20260905173604 79 350 1.0 3.0 0.00 0.00 0.00 65 1009.7
20260905173103 79 317 2.0 5.0 0.00 0.00 0.00 62 1009.7
20260905172604 79 38 1.0 6.0 0.00 0.00 0.00 64 1009.7
20260905172103 79 34 2.0 5.0 0.00 0.00 0.00 63 1009.7
20260905171604 78 242 1.0 3.0 0.00 0.00 0.00 64 1009.7
20260905171103 77 328 2.0 6.0 0.00 0.00 0.00 66 1009.8
20260905170604 77 14 1.0 3.0 0.00 0.00 0.00 64 1009.7
20260905165604 78 61 3.0 7.0 0.00 0.00 0.00 66 1009.7
20260905165103 76 26 2.0 3.0 0.00 0.00 0.00 69 1009.8
20260905164103 74 320 2.0 3.0 0.00 0.00 0.00 70 1009.8
20260905163103 74 355 2.0 3.0 0.00 0.00 0.00 69 1009.8
20260905162604 75 0 2.0 5.0 0.00 0.00 0.00 70 1009.8
20260905162104 76 58 2.0 3.0 0.00 0.00 0.00 69 1009.7
20260905161604 77 48 2.0 5.0 0.00 0.00 0.00 69 1009.7
20260905161104 78 328 2.0 6.0 0.00 0.00 0.00 69 1009.7
20260905160603 77 73 4.0 7.0 0.00 0.00 0.00 68 1009.7
20260905160104 78 330 3.0 7.0 0.00 0.00 0.00 70 1009.8
20260905155604 77 9 3.0 5.0 0.00 0.00 0.00 68 1009.8
20260905155103 77 5 3.0 6.0 0.00 0.00 0.00 69 1009.8
20260905154603 77 317 3.0 7.0 0.00 0.00 0.00 68 1009.9
20260905154104 77 337 2.0 8.0 0.00 0.00 0.00 72 1009.8
20260905153603 76 317 3.0 8.0 0.00 0.00 0.00 69 1009.9
20260905152603 76 319 2.0 7.0 0.00 0.00 0.00 71 1009.9
20260905152104 76 312 3.0 9.0 0.00 0.00 0.00 69 1009.8
20260905151603 77 294 2.0 6.0 0.00 0.00 0.00 71 1009.9
20260905151103 76 34 2.0 3.0 0.00 0.00 0.00 71 1009.9
20260905150603 77 328 2.0 3.0 0.00 0.00 0.00 70 1009.9
20260905150103 76 328 3.0 7.0 0.00 0.00 0.00 70 1009.9
20260905145604 76 8 2.0 7.0 0.00 0.00 0.00 72 1009.9
20260905145104 75 18 3.0 5.0 0.00 0.00 0.00 71 1009.9
20260905144604 75 332 2.0 6.0 0.00 0.00 0.00 72 1009.9
20260905144103 75 327 2.0 5.0 0.00 0.00 0.00 70 1010.0
20260905143604 74 29 2.0 3.0 0.00 0.00 0.00 73 1010.0
20260905143103 73 284 2.0 5.0 0.00 0.00 0.00 73 1010.0
20260905142603 73 40 2.0 3.0 0.00 0.00 0.00 74 1009.9
20260905142103 73 51 3.0 5.0 0.00 0.00 0.00 74 1009.9
20260905141604 73 52 3.0 6.0 0.00 0.00 0.00 73 1010.0
20260905140603 73 50 4.0 8.0 0.00 0.00 0.00 72 1010.0
20260905140104 74 43 3.0 5.0 0.00 0.00 0.00 71 1010.0
20260905135603 74 64 5.0 9.0 0.00 0.00 0.00 71 1010.0
20260905135103 74 76 5.0 9.0 0.00 0.00 0.00 72 1010.0
20260905134603 74 23 5.0 8.0 0.00 0.00 0.00 70 1010.0
20260905134104 74 49 3.0 8.0 0.00 0.00 0.00 73 1010.0
20260905133603 74 45 3.0 7.0 0.00 0.00 0.00 71 1010.0
20260905133103 74 54 2.0 7.0 0.00 0.00 0.00 74 1010.0
20260905131603 73 41 3.0 7.0 0.00 0.00 0.00 72 1010.1
20260905131104 73 51 5.0 8.0 0.00 0.00 0.00 71 1010.1
20260905125604 74 343 3.0 5.0 0.00 0.00 0.00 74 1010.1
20260905125103 73 25 4.0 8.0 0.00 0.00 0.00 74 1010.1
20260905124603 73 340 2.0 5.0 0.00 0.00 0.00 73 1010.1
20260905123604 73 0 3.0 6.0 0.00 0.00 0.00 74 1010.2
20260905123103 72 24 3.0 5.0 0.00 0.00 0.00 76 1010.1
20260905122603 71 351 3.0 6.0 0.00 0.00 0.00 76 1010.1
20260905122104 71 0 2.0 8.0 0.00 0.00 0.00 76 1010.3
20260905121603 71 347 4.0 8.0 0.00 0.00 0.00 76 1010.0
20260905120603 71 332 5.0 9.0 0.00 0.00 0.00 77 1010.0
20260905114604 69 338 5.0 8.0 0.00 0.00 0.00 79 1010.0
20260905114103 69 310 3.0 9.0 0.00 0.00 0.00 78 1010.0
20260905113603 69 276 1.0 7.0 0.00 0.00 0.00 79 1009.8
20260905112604 69 302 3.0 6.0 0.00 0.00 0.00 78 1009.7
20260905111604 68 341 1.0 5.0 0.00 0.00 0.00 78 1009.7
20260905111104 68 34 1.0 5.0 0.00 0.00 0.00 78 1009.7
20260905110603 68 314 3.0 9.0 0.00 0.00 0.00 78 1009.6
20260905105604 68 353 3.0 6.0 0.00 0.00 0.00 78 1009.4
20260905105103 68 38 1.0 6.0 0.00 0.00 0.00 78 1009.4
20260905104104 69 22 1.0 8.0 0.00 0.00 0.00 77 1009.2
20260905103604 69 38 2.0 9.0 0.00 0.00 0.00 77 1009.2
20260905103103 69 349 3.0 7.0 0.00 0.00 0.00 76 1009.3
20260905102104 69 20 2.0 6.0 0.00 0.00 0.00 76 1009.3
20260905101603 69 330 3.0 7.0 0.00 0.00 0.00 76 1009.1
20260905100605 69 19 3.0 8.0 0.00 0.00 0.00 76 1009.1
20260905095604 70 24 3.0 7.0 0.00 0.00 0.00 76 1009.2
20260905095103 70 8 3.0 8.0 0.00 0.00 0.00 75 1009.0
20260905094604 70 12 5.0 12.0 0.00 0.00 0.00 75 1009.0
20260905093604 70 28 6.0 14.0 0.00 0.00 0.00 75 1008.9
20260905093103 70 44 6.0 12.0 0.00 0.00 0.00 75 1008.9
20260905092603 70 36 3.0 10.0 0.00 0.00 0.00 75 1008.8
20260905092103 70 36 3.0 9.0 0.00 0.00 0.00 75 1008.8
20260905091603 70 17 3.0 12.0 0.00 0.00 0.00 74 1008.8
20260905091103 70 5 5.0 12.0 0.00 0.00 0.00 74 1008.8
20260905090604 70 4 2.0 10.0 0.00 0.00 0.00 74 1008.8
20260905090103 70 47 5.0 12.0 0.00 0.00 0.00 74 1008.8
20260905085103 71 19 5.0 10.0 0.00 0.00 0.00 74 1008.8
20260905084604 71 44 4.0 12.0 0.00 0.00 0.00 74 1008.8
20260905084104 71 32 6.0 12.0 0.00 0.00 0.00 74 1008.8
20260905083604 71 30 5.0 12.0 0.00 0.00 0.00 74 1008.8
20260905083103 71 25 6.0 10.0 0.00 0.00 0.00 74 1008.7
20260905082604 71 10 5.0 9.0 0.00 0.00 0.00 74 1008.8
20260905082103 71 14 4.0 6.0 0.00 0.00 0.00 74 1008.7
20260905081103 71 17 2.0 13.0 0.00 0.00 0.00 74 1008.7
20260905080603 71 0 3.0 8.0 0.00 0.00 0.00 73 1008.7
20260905080104 71 31 6.0 12.0 0.00 0.00 0.00 73 1008.7
20260905075603 71 26 3.0 9.0 0.00 0.00 0.00 74 1008.7
20260905075104 71 26 5.0 10.0 0.00 0.00 0.00 73 1008.7
20260905073603 71 42 6.0 12.0 0.00 0.00 0.00 73 1008.5
20260905073103 71 42 6.0 13.0 0.00 0.00 0.00 73 1008.5
20260905072604 71 27 5.0 12.0 0.00 0.00 0.00 73 1008.5
20260905072103 71 53 4.0 12.0 0.00 0.00 0.00 73 1008.8
20260905071603 71 42 5.0 12.0 0.00 0.00 0.00 73 1008.8
20260905071104 71 37 5.0 10.0 0.00 0.00 0.00 73 1008.8
20260905070603 71 356 6.0 12.0 0.00 0.00 0.00 73 1008.8
20260905065103 71 40 3.0 7.0 0.00 0.00 0.00 74 1009.0
20260905064611 71 37 3.0 6.0 0.00 0.00 0.00 74 1009.0
20260905063604 71 1 3.0 10.0 0.00 0.00 0.00 74 1009.0
20260905063104 71 19 3.0 9.0 0.00 0.00 0.00 74 1009.0
20260905062603 71 35 3.0 12.0 0.00 0.00 0.00 74 1009.0
20260905061604 71 20 3.0 9.0 0.00 0.02 0.00 76 1008.9
20260905061104 71 356 2.0 5.0 0.00 0.02 0.00 76 1009.0
20260905060603 71 40 3.0 8.0 0.00 0.02 0.00 77 1009.1
20260905060103 71 26 4.0 9.0 0.00 0.03 0.00 77 1009.2
20260905055604 70 49 3.0 7.0 0.00 0.33 0.00 78 1009.3
20260905055103 70 42 3.0 9.0 0.00 0.83 0.00 79 1009.3
20260905054603 70 37 2.0 3.0 0.00 1.03 0.00 81 1009.3
20260905054104 70 331 0.0 3.0 0.00 1.03 0.00 81 1009.6
20260905053603 70 46 2.0 5.0 0.00 1.03 0.00 82 1009.6
20260905053103 70 22 1.0 3.0 0.00 1.03 0.00 83 1009.6
20260905052603 71 61 1.0 3.0 0.00 1.03 0.00 84 1009.6
20260905052103 71 67 1.0 3.0 0.00 1.03 0.00 84 1009.6
20260905051604 71 38 1.0 3.0 0.00 1.03 0.00 84 1009.6
20260905051104 71 51 2.0 3.0 0.00 1.03 0.00 84 1009.6
20260905050103 71 78 0.0 1.0 0.00 1.03 0.00 84 1009.7
20260905045603 71 78 0.0 1.0 0.00 1.03 0.00 85 1009.7
20260905045103 71 78 0.0 2.0 0.00 1.03 0.00 85 1009.7
20260905044604 71 78 0.0 3.0 0.00 1.03 0.00 85 1009.7
20260905044104 71 35 1.0 3.0 0.00 1.03 0.00 85 1009.8
20260905043603 71 46 0.0 2.0 0.00 1.03 0.00 85 1009.8
20260905043103 71 143 0.0 2.0 0.00 1.03 0.00 85 1009.8
20260905042604 71 209 0.0 3.0 0.00 1.03 0.00 85 1009.8
20260905042104 71 98 0.0 1.0 0.00 1.03 0.00 85 1009.8
20260905041604 71 51 0.0 3.0 0.00 1.03 0.00 85 1009.9
20260905041104 72 134 1.0 2.0 0.00 1.03 0.00 85 1009.9
20260905040604 72 351 0.0 0.0 0.00 1.03 0.00 85 1010.0
20260905040103 72 351 1.0 3.0 0.00 1.03 0.00 86 1010.0
20260905035604 72 331 1.0 2.0 0.00 1.03 1.03 86 1010.0
20260905035103 72 331 1.0 3.0 0.00 1.03 1.03 86 1010.0
20260905034103 71 306 1.0 3.0 0.00 1.03 1.03 86 1010.0
20260905033603 71 285 2.0 3.0 0.00 1.03 1.03 86 1010.0
20260905032604 71 297 1.0 3.0 0.00 1.03 1.03 86 1010.0
20260905032104 71 290 1.0 3.0 0.00 1.03 1.03 86 1010.0
20260905031103 70 279 1.0 3.0 0.00 1.03 1.03 86 1009.9
20260905025603 70 315 1.0 3.0 0.00 1.03 1.03 86 1009.6
20260905025103 70 299 1.0 3.0 0.00 1.03 1.03 85 1009.8
20260905024603 70 214 0.0 1.0 0.00 1.03 1.03 85 1009.8
20260905024103 70 214 0.0 0.0 0.00 1.03 1.03 85 1009.8
20260905023604 70 214 0.0 0.0 0.00 1.03 1.03 85 1009.8
20260905023103 70 214 0.0 1.0 0.00 1.03 1.03 85 1009.8
20260905022604 70 214 0.0 2.0 0.00 1.03 1.03 85 1009.8
20260905022103 70 214 1.0 3.0 0.00 1.03 1.03 85 1009.8
20260905021604 71 214 0.0 2.0 0.00 1.03 1.03 85 1009.9
20260905021103 71 214 0.0 3.0 0.00 1.03 1.03 85 1009.9
20260905020104 71 221 1.0 2.0 0.00 1.03 1.03 85 1009.9
20260905015604 71 231 0.0 0.0 0.00 1.03 1.03 85 1009.9
20260905015104 71 231 0.0 0.0 0.00 1.03 1.03 84 1009.9
20260905014603 71 233 0.0 0.0 0.00 1.03 1.03 84 1009.9
20260905014103 71 235 0.0 0.0 0.00 1.03 1.03 84 1009.9
20260905013604 71 232 0.0 0.0 0.00 1.03 1.03 83 1009.9
20260905013104 72 217 0.0 0.0 0.00 1.03 1.03 83 1009.9
20260905012604 72 222 0.0 0.0 0.00 1.03 1.03 82 1009.9
20260905012103 72 217 0.0 0.0 0.00 1.03 1.03 82 1009.9
20260905011603 72 216 0.0 0.0 0.00 1.03 1.03 81 1010.0
20260905011103 72 217 0.0 0.0 0.00 1.03 1.03 80 1010.0
20260905010104 73 217 0.0 0.0 0.00 1.03 1.03 79 1010.1
20260905005603 73 216 1.0 3.0 0.00 1.03 1.03 79 1010.1
20260905005103 73 230 1.0 3.0 0.00 1.03 1.03 78 1009.9
20260905004103 74 306 0.0 2.0 0.00 1.03 1.03 78 1009.9
20260905003603 74 306 0.0 2.0 0.00 1.03 1.03 77 1009.9
20260905002604 74 263 0.0 2.0 0.00 1.03 1.03 77 1009.9
20260905002104 75 257 0.0 3.0 0.00 1.03 1.03 77 1009.9
20260905001603 75 285 1.0 3.0 0.00 1.03 1.03 76 1009.9
20260905001103 75 220 1.0 3.0 0.00 1.03 1.03 76 1009.8
20260905000104 75 275 0.0 2.0 0.00 1.03 1.03 73 1009.8
20260904235104 76 275 1.0 3.0 0.00 1.03 1.03 74 1009.8
20260904234604 76 285 0.0 2.0 0.00 1.03 1.03 73 1009.8
20260904234104 76 264 1.0 2.0 0.00 1.03 1.03 73 1009.8
20260904233603 76 246 0.0 3.0 0.00 1.03 1.03 72 1009.7
20260904232603 77 290 1.0 3.0 0.00 1.03 1.03 71 1009.5
20260904232103 77 226 0.0 3.0 0.00 1.03 1.03 70 1009.5
20260904231603 78 204 1.0 2.0 0.00 1.03 1.03 69 1009.5
20260904231104 78 283 1.0 3.0 0.00 1.03 1.03 69 1009.5
20260904230604 78 293 2.0 3.0 0.00 1.03 1.03 67 1009.5
20260904225604 79 345 3.0 5.0 0.00 1.03 1.03 66 1009.5
20260904224603 79 313 2.0 6.0 0.00 1.03 1.03 66 1009.6
20260904224103 79 290 2.0 3.0 0.00 1.03 1.03 65 1009.6
20260904223104 79 306 2.0 3.0 0.00 1.03 1.03 65 1009.6
20260904222604 80 296 2.0 3.0 0.00 1.03 1.03 65 1009.6
20260904222103 80 288 2.0 6.0 0.00 1.03 1.03 65 1009.6
20260904221604 80 302 2.0 5.0 0.00 1.03 1.03 65 1009.6
20260904221103 80 310 3.0 6.0 0.00 1.03 1.03 64 1009.6
20260904220603 80 326 2.0 5.0 0.00 1.03 1.03 65 1009.6
20260904220104 80 286 2.0 3.0 0.00 1.03 1.03 64 1009.5
20260904215603 80 319 3.0 5.0 0.00 1.03 1.03 64 1009.5
20260904215103 81 335 1.0 6.0 0.00 1.03 1.03 66 1009.5
20260904214604 81 31 1.0 5.0 0.00 1.03 1.03 66 1009.5
20260904213104 81 356 1.0 3.0 0.00 1.03 1.03 63 1009.5
20260904212604 82 39 2.0 5.0 0.00 1.03 1.03 64 1009.5
20260904212103 82 28 1.0 3.0 0.00 1.03 1.03 64 1009.5
20260904211603 82 350 1.0 5.0 0.00 1.03 1.03 64 1009.5
20260904211104 82 324 1.0 6.0 0.00 1.03 1.03 65 1009.5
20260904205604 82 321 2.0 8.0 0.00 1.03 1.03 61 1009.7
20260904205104 82 320 4.0 8.0 0.00 1.03 1.03 59 1009.7
20260904204604 82 8 2.0 3.0 0.00 1.03 1.03 61 1009.7
20260904203603 83 2 2.0 5.0 0.00 1.03 1.03 62 1009.7
20260904203103 83 335 3.0 6.0 0.00 1.03 1.03 62 1009.7
20260904202603 83 354 2.0 5.0 0.00 1.03 1.03 61 1009.8
20260904202104 83 36 3.0 7.0 0.00 1.03 1.03 62 1009.8
20260904201603 83 328 3.0 5.0 0.00 1.03 1.03 60 1009.8
20260904200603 83 322 2.0 6.0 0.00 1.03 1.03 61 1009.8
20260904200103 83 346 2.0 7.0 0.00 1.03 1.03 61 1009.8
20260904195103 84 40 2.0 3.0 0.00 1.03 1.03 60 1009.8
20260904194603 83 19 2.0 6.0 0.00 1.03 1.03 62 1009.8